Location: Gajan
(43.0218°N, 1.1244°E)
Time: 03:43:39
(UTC+00:00)

USA 215 - Pass Details

Date: 22 April 2021
Orbit: 1101 x 1107 km, 123.0° (Epoch: 14 May)

Event Time Altitude Azimuth Distance (km) Brightness Sun altitude
Exits shadow 21:21:35 42° 101° (ESE) 1,526 3.6 -24.5°
Maximum altitude 21:23:52 67° 35° (NE) 1,183 3.4 -24.7°
Drops below altitude 10° 21:30:21 10° 314° (NW) 2,963 6.6 -25.5°
Sets 21:32:51 0° 312° (NW) 3,924 7.5 -25.8°
